Location: Ch�risy
(50.2331°N, 2.9131°E)
Time: 20:04:06
(UTC+00:00)

Cosmos 1844 Rocket - Pass Details

Date: 17 January 2021
Orbit: 825 x 843 km, 71.0° (Epoch: 27 February)

Event Time Altitude Azimuth Distance (km) Brightness Sun altitude
Rises 17:19:13 0° 144° (SE) 3,391 5.7 -9.7°
Reaches altitude 10° 17:23:40 10° 111° (ESE) 2,462 4.7 -10.3°
Maximum altitude 17:25:13 11° 94° (E) 2,382 4.5 -10.6°
Enters shadow 17:25:23 11° 93° (E) 2,383 4.5 -10.6°
